TimeEDT,TemperatureF,Dew PointF,Humidity,Sea Level PressureIn,VisibilityMPH,Wind Direction,Wind SpeedMPH,Gust SpeedMPH,PrecipitationIn,Events,Conditions,WindDirDegrees,DateUTC
12:54 AM,73.9,71.1,91,30.22,10.0,Calm,Calm,-,N/A,,Clear,0,2013-07-07 04:54:00
1:54 AM,73.0,70.0,90,30.22,10.0,Calm,Calm,-,N/A,,Clear,0,2013-07-07 05:54:00
2:54 AM,72.0,70.0,93,30.21,10.0,Calm,Calm,-,N/A,,Clear,0,2013-07-07 06:54:00
3:54 AM,71.1,68.0,90,30.20,10.0,Calm,Calm,-,N/A,,Clear,0,2013-07-07 07:54:00
4:54 AM,73.0,70.0,90,30.20,10.0,Calm,Calm,-,N/A,,Clear,0,2013-07-07 08:54:00
5:54 AM,71.1,69.1,93,30.21,10.0,Calm,Calm,-,N/A,,Clear,0,2013-07-07 09:54:00
6:54 AM,73.0,71.1,93,30.22,10.0,Calm,Calm,-,N/A,,Clear,0,2013-07-07 10:54:00
7:54 AM,79.0,73.0,82,30.23,10.0,SSW,3.5,-,N/A,,Clear,200,2013-07-07 11:54:00
8:54 AM,82.0,72.0,71,30.23,10.0,SW,8.1,-,N/A,,Clear,220,2013-07-07 12:54:00
9:54 AM,84.9,72.0,65,30.22,10.0,Variable,6.9,-,N/A,,Scattered Clouds,0,2013-07-07 13:54:00
10:54 AM,86.0,72.0,63,30.22,10.0,WSW,8.1,-,N/A,,Scattered Clouds,250,2013-07-07 14:54:00
11:54 AM,88.0,69.1,53,30.21,10.0,SW,8.1,-,N/A,,Partly Cloudy,230,2013-07-07 15:54:00
12:54 PM,89.1,71.1,55,30.20,10.0,SSW,10.4,17.3,N/A,,Scattered Clouds,210,2013-07-07 16:54:00
1:54 PM,90.0,72.0,55,30.19,10.0,SSW,8.1,-,N/A,,Scattered Clouds,200,2013-07-07 17:54:00
2:54 PM,87.1,72.0,61,30.17,10.0,SSW,6.9,-,N/A,,Mostly Cloudy,210,2013-07-07 18:54:00
3:54 PM,89.1,72.0,57,30.15,10.0,SSW,8.1,-,N/A,,Partly Cloudy,210,2013-07-07 19:54:00
4:54 PM,89.1,72.0,57,30.13,10.0,South,9.2,-,N/A,,Partly Cloudy,190,2013-07-07 20:54:00
5:54 PM,87.1,72.0,61,30.12,10.0,South,9.2,-,N/A,,Clear,180,2013-07-07 21:54:00
6:54 PM,84.9,70.0,61,30.12,10.0,South,9.2,-,N/A,,Clear,190,2013-07-07 22:54:00
7:54 PM,82.0,70.0,67,30.12,10.0,SSW,6.9,-,N/A,,Clear,200,2013-07-07 23:54:00
8:54 PM,78.1,69.1,74,30.14,10.0,South,4.6,-,N/A,,Partly Cloudy,180,2013-07-08 00:54:00
9:54 PM,77.0,69.1,76,30.17,10.0,South,5.8,-,N/A,,Clear,190,2013-07-08 01:54:00
10:54 PM,77.0,70.0,79,30.18,10.0,South,4.6,-,N/A,,Clear,190,2013-07-08 02:54:00
11:54 PM,75.9,71.1,85,30.19,10.0,SW,6.9,-,N/A,,Clear,220,2013-07-08 03:54:00